This is the latest recevied weather packets stored in our database for station/object K6GMW. If no packets are shown the sender has not sent any weather packets the latest 10 day(s).
| Time | Temp. | Humidity | Pressure | Rain* | Wind** | Luminosity | Snow |
|---|---|---|---|---|---|---|---|
| 1787970448 | 27.78° C | 56% | 1017.2 hPa | 0 mm | - | 0 W/m² | - |
| 1787970148 | 27.78° C | 56% | 1017 hPa | 0 mm | - | 0 W/m² | - |
| 1787969847 | 28.33° C | 55% | 1016.8 hPa | 0 mm | - | 0 W/m² | - |
| 1787969547 | 28.89° C | 54% | 1016.8 hPa | 0 mm | - | 0 W/m² | - |
| 1787969247 | 28.89° C | 52% | 1016.6 hPa | 0 mm | - | 0 W/m² | - |
| 1787968947 | 29.44° C | 51% | 1016.7 hPa | 0 mm | - | 0 W/m² | - |
| 1787968646 | 29.44° C | 51% | 1016.7 hPa | 0 mm | - | 0 W/m² | - |
| 1787968341 | 29.44° C | 51% | 1016.5 hPa | 0 mm | - | 0 W/m² | - |
| 1787968036 | 29.44° C | 51% | 1016.5 hPa | 0 mm | - | 0 W/m² | - |
| 1787967735 | 29.44° C | 51% | 1016.7 hPa | 0 mm | - | 0 W/m² | - |
| 1787967433 | 29.44° C | 51% | 1016.3 hPa | 0 mm | - | 0 W/m² | - |
| 1787967128 | 30° C | 50% | 1016.5 hPa | 0 mm | - | 0 W/m² | - |
| 1787966824 | 30° C | 50% | 1016.5 hPa | 0 mm | - | 0 W/m² | - |
| 1787966520 | 30.56° C | 50% | 1016.2 hPa | 0 mm | - | 0 W/m² | - |
| 1787966219 | 30.56° C | 49% | 1016.3 hPa | 0 mm | - | 0 W/m² | - |
| 1787965914 | 30.56° C | 49% | 1016.3 hPa | 0 mm | - | 0 W/m² | - |
| 1787965610 | 31.11° C | 47% | 1016.2 hPa | 0 mm | - | 0 W/m² | - |
| 1787965309 | 31.67° C | 45% | 1016.3 hPa | 0 mm | - | 1 W/m² | - |
| 1787965008 | 32.22° C | 44% | 1016.3 hPa | 0 mm | - | 1 W/m² | - |
| 1787964709 | 32.78° C | 42% | 1016.2 hPa | 0 mm | - | 3 W/m² | - |
| 1787964409 | 33.33° C | 42% | 1016.2 hPa | 0 mm | - | 6 W/m² | - |
| 1787964104 | 33.89° C | 42% | 1016 hPa | 0 mm | - | 9 W/m² | - |
| 1787963803 | 34.44° C | 41% | 1016.1 hPa | 0 mm | - | 13 W/m² | - |
| 1787963498 | 35° C | 39% | 1016.1 hPa | 0 mm | - | 18 W/m² | - |
| 1787963194 | 35.56° C | 38% | 1016.1 hPa | 0 mm | - | 23 W/m² | - |
* Rain latest hour (hover to see other rain measurements)
** Current wind speed in m/s (hover to see current wind gust speed)